FW5225 Weather Reports


time (UTC)temp
C
wind
direction
speed
KPH
gust
KPH
rain 1hr
cm
rain 24hr
cm
rain mn
cm
humidity
%
barometer
mb
20260903030501 35 243 3.2 6.4 0.00 0.00 0.00 23 1007.1
20260903030002 35 278 1.6 6.4 0.00 0.00 0.00 24 1007.1
20260903025501 35 253 1.6 9.7 0.00 0.00 0.00 25 1007.0
20260903025003 35 250 1.6 9.7 0.00 0.00 0.00 25 1006.9
20260903024502 35 254 1.6 9.7 0.00 0.00 0.00 26 1006.9
20260903024001 35 290 1.6 9.7 0.00 0.00 0.00 27 1006.7
20260903023503 35 229 1.6 11.3 0.00 0.00 0.00 27 1006.7
20260903023108 35 286 3.2 11.3 0.00 0.00 0.00 27 1006.7
20260903022600 35 260 4.8 11.3 0.00 0.00 0.00 27 1006.6
20260903022102 35 227 3.2 16.1 0.00 0.00 0.00 27 1006.5
20260903021608 35 207 6.4 16.1 0.00 0.00 0.00 26 1006.5
20260903021100 35 234 6.4 12.9 0.00 0.00 0.00 26 1006.6
20260903020559 35 255 4.8 11.3 0.00 0.00 0.00 26 1006.5
20260903020104 36 269 3.2 12.9 0.00 0.00 0.00 25 1006.5
20260903015602 36 277 6.4 14.5 0.00 0.00 0.00 24 1006.5
20260903015501 36 295 4.8 14.5 0.00 0.00 0.00 24 1006.5
20260903015059 36 270 1.6 14.5 0.00 0.00 0.00 24 1006.4
20260903014607 36 302 8.0 14.5 0.00 0.00 0.00 24 1006.5
20260903014058 36 282 8.0 14.5 0.00 0.00 0.00 24 1006.5
20260903013559 36 297 4.8 11.3 0.00 0.00 0.00 24 1006.4
20260903013101 36 338 6.4 11.3 0.00 0.00 0.00 23 1006.4
20260903012558 36 268 6.4 11.3 0.00 0.00 0.00 23 1006.4
20260903012057 36 300 3.2 12.9 0.00 0.00 0.00 25 1006.4
20260903011558 37 251 4.8 8.0 0.00 0.00 0.00 25 1006.4
20260903011100 37 285 0.0 9.7 0.00 0.00 0.00 26 1006.4
20260903010556 37 223 4.8 14.5 0.00 0.00 0.00 25 1006.3
20260903010057 37 246 3.2 14.5 0.00 0.00 0.00 26 1006.2
20260903005557 37 298 4.8 14.5 0.00 0.00 0.00 26 1006.3
20260903005056 37 249 3.2 11.3 0.00 0.00 0.00 26 1006.3
20260903004555 37 227 4.8 12.9 0.00 0.00 0.00 26 1006.3
20260903004055 37 263 4.8 19.3 0.00 0.00 0.00 26 1006.4
20260903003555 37 267 4.8 19.3 0.00 0.00 0.00 26 1006.4
20260903003054 37 241 6.4 12.9 0.00 0.00 0.00 25 1006.4
20260903002555 37 291 4.8 17.7 0.00 0.00 0.00 25 1006.5
20260903002054 37 275 8.0 17.7 0.00 0.00 0.00 25 1006.5
20260903001554 37 296 6.4 16.1 0.00 0.00 0.00 25 1006.4
20260903001055 37 259 6.4 16.1 0.00 0.00 0.00 25 1006.5
20260903000553 37 250 8.0 16.1 0.00 0.00 0.00 25 1006.4
20260903000053 37 256 1.6 17.7 0.00 0.00 0.00 24 1006.4
20260902235553 37 288 3.2 17.7 0.00 0.00 0.00 24 1006.5
20260902235052 37 291 8.0 17.7 0.00 0.00 0.00 24 1006.5
20260902234607 37 307 9.7 17.7 0.00 0.00 0.00 24 1006.6
20260902234053 38 271 6.4 20.9 0.00 0.00 0.00 24 1006.6
20260902233551 38 300 6.4 20.9 0.00 0.00 0.00 24 1006.7
20260902233052 38 292 3.2 17.7 0.00 0.00 0.00 23 1006.7
20260902232554 38 270 6.4 12.9 0.00 0.00 0.00 23 1006.8
20260902232049 38 253 4.8 11.3 0.00 0.00 0.00 24 1006.8
20260902231604 38 180 3.2 12.9 0.00 0.00 0.00 24 1007.0
20260902231048 38 188 4.8 16.1 0.00 0.00 0.00 24 1007.0
20260902230547 38 179 4.8 16.1 0.00 0.00 0.00 24 1007.0
20260902230052 38 157 4.8 16.1 0.00 0.00 0.00 24 1007.1
20260902225548 38 273 6.4 17.7 0.00 0.00 0.00 25 1007.1
20260902225048 38 230 8.0 17.7 0.00 0.00 0.00 24 1007.3
20260902224547 38 259 3.2 16.1 0.00 0.00 0.00 25 1007.2
20260902224045 38 260 4.8 16.1 0.00 0.00 0.00 24 1007.4
20260902223544 38 175 3.2 20.9 0.00 0.00 0.00 24 1007.5
20260902223046 38 207 4.8 20.9 0.00 0.00 0.00 24 1007.5
20260902222543 38 235 8.0 20.9 0.00 0.00 0.00 25 1007.7
20260902222041 38 223 3.2 22.5 0.00 0.00 0.00 25 1007.6
20260902221541 38 215 6.4 22.5 0.00 0.00 0.00 25 1007.7
20260902221043 38 160 8.0 19.3 0.00 0.00 0.00 25 1007.7
20260902220544 38 178 6.4 11.3 0.00 0.00 0.00 25 1007.8
20260902220040 38 304 4.8 11.3 0.00 0.00 0.00 25 1007.8
20260902215539 38 196 3.2 11.3 0.00 0.00 0.00 26 1007.9
20260902215036 38 184 3.2 14.5 0.00 0.00 0.00 26 1008.1
20260902214539 37 325 4.8 16.1 0.00 0.00 0.00 27 1008.1
20260902214038 37 283 8.0 16.1 0.00 0.00 0.00 27 1008.1
20260902213534 37 185 4.8 14.5 0.00 0.00 0.00 28 1008.2
20260902213034 37 258 6.4 22.5 0.00 0.00 0.00 28 1008.2
20260902212534 37 229 8.0 22.5 0.00 0.00 0.00 29 1008.2
20260902212033 37 288 3.2 19.3 0.00 0.00 0.00 31 1008.3
20260902211537 37 265 9.7 19.3 0.00 0.00 0.00 30 1008.4
20260902211036 37 273 3.2 17.7 0.00 0.00 0.00 31 1008.5
20260902210531 37 300 8.0 17.7 0.00 0.00 0.00 30 1008.6
20260902210030 37 284 8.0 17.7 0.00 0.00 0.00 28 1008.6
20260902205529 37 268 8.0 16.1 0.00 0.00 0.00 32 1008.7
20260902205029 37 279 3.2 11.3 0.00 0.00 0.00 33 1008.8
20260902204529 37 163 4.8 12.9 0.00 0.00 0.00 32 1008.9
20260902204028 37 323 6.4 12.9 0.00 0.00 0.00 33 1008.8
20260902203530 37 241 3.2 11.3 0.00 0.00 0.00 32 1008.9
20260902203027 37 249 4.8 11.3 0.00 0.00 0.00 31 1009.1
20260902202529 37 200 3.2 12.9 0.00 0.00 0.00 33 1009.2
20260902202027 37 259 6.4 14.5 0.00 0.00 0.00 32 1009.3
20260902201534 36 275 4.8 14.5 0.00 0.00 0.00 32 1009.4
20260902201026 36 348 3.2 17.7 0.00 0.00 0.00 31 1009.5
20260902200526 36 190 8.0 17.7 0.00 0.00 0.00 31 1009.5
20260902200026 36 239 1.6 14.5 0.00 0.00 0.00 32 1009.6
20260902195526 37 246 4.8 14.5 0.00 0.00 0.00 32 1009.7
20260902195025 37 267 1.6 9.7 0.00 0.00 0.00 31 1009.8
20260902194525 37 247 4.8 8.0 0.00 0.00 0.00 31 1009.9
20260902194025 37 206 3.2 11.3 0.00 0.00 0.00 31 1009.9
20260902193524 37 179 3.2 11.3 0.00 0.00 0.00 32 1010.0
20260902193023 37 186 1.6 9.7 0.00 0.00 0.00 32 1010.0
20260902192521 37 207 1.6 9.7 0.00 0.00 0.00 33 1010.2
20260902192022 36 207 1.6 8.0 0.00 0.00 0.00 33 1010.3
20260902191521 36 205 3.2 8.0 0.00 0.00 0.00 32 1010.4
20260902191019 36 150 3.2 9.7 0.00 0.00 0.00 32 1010.4
20260902190519 36 174 1.6 9.7 0.00 0.00 0.00 34 1010.5
20260902190019 36 211 1.6 8.0 0.00 0.00 0.00 33 1010.5
20260902185518 36 263 1.6 9.7 0.00 0.00 0.00 34 1010.6
20260902185017 35 144 3.2 9.7 0.00 0.00 0.00 36 1010.6
20260902184515 35 181 1.6 9.7 0.00 0.00 0.00 36 1010.8
20260902184014 35 218 1.6 8.0 0.00 0.00 0.00 37 1010.8
20260902183513 35 273 3.2 8.0 0.00 0.00 0.00 37 1010.9
20260902183012 34 198 3.2 8.0 0.00 0.00 0.00 37 1011.0
20260902182511 34 211 3.2 11.3 0.00 0.00 0.00 38 1011.1
20260902182012 33 242 3.2 11.3 0.00 0.00 0.00 38 1011.1
20260902181510 33 244 3.2 11.3 0.00 0.00 0.00 38 1011.2
20260902181010 34 205 3.2 11.3 0.00 0.00 0.00 37 1011.2
20260902180510 34 193 1.6 6.4 0.00 0.00 0.00 37 1011.2
20260902180010 34 186 1.6 11.3 0.00 0.00 0.00 37 1011.2
20260902175509 34 286 4.8 12.9 0.00 0.00 0.00 37 1011.4
20260902175008 34 269 4.8 12.9 0.00 0.00 0.00 37 1011.4
20260902174508 34 281 4.8 11.3 0.00 0.00 0.00 37 1011.5
20260902174009 34 208 1.6 11.3 0.00 0.00 0.00 37 1011.4
20260902173505 34 218 1.6 12.9 0.00 0.00 0.00 36 1011.4
20260902173019 33 202 1.6 11.3 0.00 0.00 0.00 37 1011.4
20260902172507 33 221 3.2 11.3 0.00 0.00 0.00 37 1011.5
20260902172005 34 191 1.6 14.5 0.00 0.00 0.00 37 1011.5
20260902171504 33 186 3.2 14.5 0.00 0.00 0.00 37 1011.4
20260902171003 33 194 3.2 11.3 0.00 0.00 0.00 37 1011.5
20260902170502 33 137 1.6 8.0 0.00 0.00 0.00 37 1011.4
20260902170003 33 202 3.2 8.0 0.00 0.00 0.00 37 1011.4
20260902165600 33 213 3.2 9.7 0.00 0.00 0.00 36 1011.5
20260902165101 33 204 3.2 9.7 0.00 0.00 0.00 37 1011.5
20260902164557 33 206 3.2 11.3 0.00 0.00 0.00 37 1011.4
20260902164056 33 246 3.2 8.0 0.00 0.00 0.00 38 1011.3
20260902163555 33 254 1.6 8.0 0.00 0.00 0.00 38 1011.3
20260902163054 33 225 1.6 9.7 0.00 0.00 0.00 38 1011.3
20260902162555 33 200 3.2 8.0 0.00 0.00 0.00 38 1011.4
20260902162051 33 234 1.6 11.3 0.00 0.00 0.00 38 1011.3
20260902161558 32 201 1.6 9.7 0.00 0.00 0.00 38 1011.2
20260902161049 32 253 1.6 11.3 0.00 0.00 0.00 38 1011.2
20260902160547 32 227 4.8 11.3 0.00 0.00 0.00 38 1011.2
20260902160049 32 182 0.0 6.4 0.00 0.00 0.00 40 1011.2
20260902155544 32 205 0.0 6.4 0.00 0.00 0.00 40 1011.2
20260902155043 32 190 1.6 9.7 0.00 0.00 0.00 41 1011.2
20260902154543 32 267 3.2 9.7 0.00 0.00 0.00 41 1011.2
20260902154041 32 232 4.8 11.3 0.00 0.00 0.00 41 1011.2
20260902153539 32 295 3.2 11.3 0.00 0.00 0.00 41 1011.2
20260902153041 31 198 3.2 8.0 0.00 0.00 0.00 41 1011.1
20260902152537 31 155 1.6 8.0 0.00 0.00 0.00 43 1011.1
20260902152036 31 246 1.6 8.0 0.00 0.00 0.00 43 1011.1
20260902151535 31 145 1.6 9.7 0.00 0.00 0.00 43 1011.1
20260902151035 31 302 1.6 9.7 0.00 0.00 0.00 44 1011.1
20260902150534 31 205 1.6 6.4 0.00 0.00 0.00 43 1011.1
20260902150033 31 227 1.6 8.0 0.00 0.00 0.00 44 1011.0
20260902145530 31 196 1.6 8.0 0.00 0.00 0.00 45 1010.9
20260902145029 31 229 0.0 6.4 0.00 0.00 0.00 46 1010.9
20260902144527 30 181 0.0 8.0 0.00 0.00 0.00 46 1010.8
20260902144026 30 169 1.6 8.0 0.00 0.00 0.00 47 1010.9
20260902143526 30 172 0.0 6.4 0.00 0.00 0.00 48 1010.8
20260902143026 30 210 0.0 3.2 0.00 0.00 0.00 48 1010.9
20260902142522 30 188 0.0 3.2 0.00 0.00 0.00 49 1010.8
20260902142021 30 209 0.0 4.8 0.00 0.00 0.00 49 1010.8
20260902141525 30 224 0.0 4.8 0.00 0.00 0.00 49 1010.7
20260902141022 29 180 0.0 3.2 0.00 0.00 0.00 50 1010.6
20260902140517 29 158 0.0 0.0 0.00 0.00 0.00 50 1010.5
20260902140029 28 289 0.0 0.0 0.00 0.00 0.00 51 1010.5
20260902135518 28 291 0.0 0.0 0.00 0.00 0.00 51 1010.4
20260902135015 28 291 0.0 0.0 0.00 0.00 0.00 51 1010.5
20260902134513 28 231 0.0 0.0 0.00 0.00 0.00 50 1010.4
20260902134011 28 240 0.0 0.0 0.00 0.00 0.00 50 1010.3
20260902133510 28 240 0.0 0.0 0.00 0.00 0.00 50 1010.3
20260902133009 28 240 0.0 0.0 0.00 0.00 0.00 50 1010.2
20260902132512 28 219 0.0 0.0 0.00 0.00 0.00 49 1010.1
20260902132007 28 215 0.0 0.0 0.00 0.00 0.00 49 1010.2
20260902131506 28 215 0.0 0.0 0.00 0.00 0.00 48 1010.1
20260902131007 28 250 0.0 0.0 0.00 0.00 0.00 48 1010.1
20260902130504 28 250 0.0 0.0 0.00 0.00 0.00 48 1010.0
20260902130004 29 280 0.0 0.0 0.00 0.00 0.00 48 1009.9
20260902125504 29 280 0.0 0.0 0.00 0.00 0.00 47 1009.9
20260902125002 29 280 0.0 0.0 0.00 0.00 0.00 47 1009.8
20260902124501 29 280 0.0 3.2 0.00 0.00 0.00 47 1009.7
20260902124104 29 280 0.0 3.2 0.00 0.00 0.00 47 1009.6
20260902123559 29 236 0.0 3.2 0.00 0.00 0.00 46 1009.6
20260902123102 29 251 0.0 3.2 0.00 0.00 0.00 47 1009.6
20260902122600 29 219 0.0 3.2 0.00 0.00 0.00 46 1009.5
20260902122057 30 242 0.0 4.8 0.00 0.00 0.00 46 1009.4
20260902121610 30 279 0.0 6.4 0.00 0.00 0.00 46 1009.4
20260902121057 30 253 1.6 8.0 0.00 0.00 0.00 46 1009.3
20260902120555 30 254 1.6 9.7 0.00 0.00 0.00 46 1009.4
20260902120106 30 250 1.6 9.7 0.00 0.00 0.00 45 1009.4
20260902115555 30 317 4.8 9.7 0.00 0.00 0.00 46 1009.4
20260902115054 30 269 3.2 9.7 0.00 0.00 0.00 45 1009.3
20260902114612 30 213 1.6 6.4 0.00 0.00 0.00 45 1009.3
20260902114054 30 217 0.0 8.0 0.00 0.00 0.00 45 1009.3
20260902113553 30 244 1.6 8.0 0.00 0.00 0.00 45 1009.3
20260902113059 30 223 0.0 3.2 0.00 0.00 0.00 44 1009.2
20260902112552 30 234 0.0 4.8 0.00 0.00 0.00 44 1009.2
20260902112053 30 255 0.0 6.4 0.00 0.00 0.00 44 1009.1
20260902111600 30 242 0.0 6.4 0.00 0.00 0.00 43 1009.1
20260902111050 30 228 0.0 8.0 0.00 0.00 0.00 43 1009.1
20260902110550 30 256 0.0 8.0 0.00 0.00 0.00 43 1009.1
20260902110054 30 283 1.6 6.4 0.00 0.00 0.00 42 1009.1
20260902105549 30 277 1.6 6.4 0.00 0.00 0.00 42 1009.0
20260902105048 31 263 0.0 4.8 0.00 0.00 0.00 41 1009.0
20260902104548 31 269 0.0 6.4 0.00 0.00 0.00 41 1009.1
20260902104050 31 234 1.6 6.4 0.00 0.00 0.00 41 1009.1
20260902103549 31 240 0.0 9.7 0.00 0.00 0.00 41 1009.0
20260902103100 31 273 4.8 9.7 0.00 0.00 0.00 40 1009.1
20260902102546 31 268 3.2 6.4 0.00 0.00 0.00 41 1009.1
20260902102045 31 307 0.0 8.0 0.00 0.00 0.00 41 1009.1
20260902101544 31 277 3.2 8.0 0.00 0.00 0.00 40 1009.1
20260902101044 31 281 1.6 12.9 0.00 0.00 0.00 41 1009.1
20260902100547 31 271 4.8 12.9 0.00 0.00 0.00 41 1009.1
20260902100044 31 252 1.6 11.3 0.00 0.00 0.00 40 1009.1
20260902095544 31 257 3.2 11.3 0.00 0.00 0.00 40 1009.1
20260902095043 31 247 6.4 14.5 0.00 0.00 0.00 40 1009.0
20260902094548 31 315 4.8 14.5 0.00 0.00 0.00 40 1009.1
20260902094044 31 259 3.2 14.5 0.00 0.00 0.00 41 1009.1
20260902093544 31 263 8.0 14.5 0.00 0.00 0.00 41 1009.2
20260902093043 31 250 4.8 11.3 0.00 0.00 0.00 41 1009.1
20260902092543 31 252 3.2 11.3 0.00 0.00 0.00 42 1009.1
20260902092043 31 261 3.2 8.0 0.00 0.00 0.00 42 1009.1
20260902091550 31 255 1.6 14.5 0.00 0.00 0.00 41 1009.1
20260902091042 31 281 4.8 14.5 0.00 0.00 0.00 41 1009.1
20260902090543 31 250 4.8 12.9 0.00 0.00 0.00 42 1009.1
20260902090051 31 279 3.2 12.9 0.00 0.00 0.00 42 1009.2
20260902085540 31 272 3.2 14.5 0.00 0.00 0.00 42 1009.3
20260902085041 31 267 6.4 14.5 0.00 0.00 0.00 42 1009.2
20260902084541 31 277 3.2 12.9 0.00 0.00 0.00 42 1009.3
20260902084039 31 254 1.6 6.4 0.00 0.00 0.00 42 1009.3
20260902083539 31 270 1.6 9.7 0.00 0.00 0.00 42 1009.3
20260902083044 31 279 1.6 9.7 0.00 0.00 0.00 42 1009.4
20260902082539 31 241 3.2 9.7 0.00 0.00 0.00 42 1009.4
20260902082039 31 249 3.2 9.7 0.00 0.00 0.00 41 1009.4
20260902081541 32 277 0.0 12.9 0.00 0.00 0.00 41 1009.4
20260902081037 32 231 3.2 12.9 0.00 0.00 0.00 41 1009.4
20260902080537 32 248 3.2 11.3 0.00 0.00 0.00 41 1009.3
20260902080037 32 259 3.2 11.3 0.00 0.00 0.00 40 1009.4
20260902075537 32 284 3.2 11.3 0.00 0.00 0.00 40 1009.3
20260902075035 32 274 3.2 11.3 0.00 0.00 0.00 40 1009.3
20260902074545 32 265 4.8 11.3 0.00 0.00 0.00 40 1009.3
20260902074035 32 287 4.8 11.3 0.00 0.00 0.00 40 1009.1
20260902073534 32 254 3.2 9.7 0.00 0.00 0.00 40 1009.2
20260902073037 32 221 4.8 9.7 0.00 0.00 0.00 40 1009.2
20260902072532 32 237 3.2 11.3 0.00 0.00 0.00 40 1009.2
20260902072034 32 290 3.2 11.3 0.00 0.00 0.00 40 1009.1
20260902071531 32 248 3.2 11.3 0.00 0.00 0.00 40 1009.1
20260902071032 32 289 4.8 11.3 0.00 0.00 0.00 39 1009.1
20260902070530 32 269 4.8 16.1 0.00 0.00 0.00 39 1009.1
20260902070029 32 254 8.0 16.1 0.00 0.00 0.00 39 1009.0
20260902065529 32 284 4.8 9.7 0.00 0.00 0.00 40 1009.0
20260902065029 32 307 4.8 11.3 0.00 0.00 0.00 40 1009.0
20260902064533 32 228 4.8 11.3 0.00 0.00 0.00 40 1008.9
20260902064031 32 253 3.2 12.9 0.00 0.00 0.00 41 1008.9
20260902063530 31 254 6.4 12.9 0.00 0.00 0.00 41 1008.9
20260902063029 31 244 3.2 8.0 0.00 0.00 0.00 42 1008.9
20260902062530 31 256 0.0 3.2 0.00 0.00 0.00 42 1008.9
20260902062028 31 257 0.0 6.4 0.00 0.00 0.00 41 1008.9
20260902061539 31 267 1.6 6.4 0.00 0.00 0.00 41 1008.9
20260902061028 31 250 0.0 3.2 0.00 0.00 0.00 41 1008.9
20260902060527 31 263 0.0 3.2 0.00 0.00 0.00 41 1008.9
20260902060042 31 239 0.0 3.2 0.00 0.00 0.00 41 1008.9
20260902055528 31 254 0.0 3.2 0.00 0.00 0.00 40 1009.0
20260902055028 32 281 0.0 4.8 0.00 0.00 0.00 40 1009.1
20260902054537 32 244 0.0 4.8 0.00 0.00 0.00 40 1009.1
20260902054030 32 259 0.0 3.2 0.00 0.00 0.00 41 1009.1
20260902053527 32 223 0.0 3.2 0.00 0.00 0.00 41 1009.2
20260902053028 32 210 0.0 3.2 0.00 0.00 0.00 40 1009.2
20260902052526 32 221 0.0 3.2 0.00 0.00 0.00 41 1009.1
20260902052031 32 203 0.0 4.8 0.00 0.00 0.00 42 1009.2
20260902051526 32 209 0.0 8.0 0.00 0.00 0.00 41 1009.2
20260902051029 32 183 1.6 8.0 0.00 0.00 0.00 41 1009.2
20260902050526 32 185 1.6 8.0 0.00 0.00 0.00 42 1009.3
20260902050027 32 139 0.0 3.2 0.00 0.00 0.00 43 1009.2
20260902045525 32 234 0.0 0.0 0.00 0.00 0.00 46 1009.1
20260902045028 32 234 0.0 0.0 0.00 0.00 0.00 46 1009.1
20260902044525 32 234 0.0 0.0 0.00 0.00 0.00 47 1009.0
20260902044026 32 234 0.0 0.0 0.00 0.00 0.00 45 1009.0
20260902043525 32 234 0.0 0.0 0.00 0.00 0.00 45 1008.9
20260902043026 32 234 0.0 0.0 0.00 0.00 0.00 44 1008.8
20260902042525 32 234 0.0 0.0 0.00 0.00 0.00 43 1008.8
20260902042024 32 234 0.0 0.0 0.00 0.00 0.00 46 1008.7
20260902041528 33 155 0.0 0.0 0.00 0.00 0.00 44 1008.7
20260902041025 33 155 0.0 0.0 0.00 0.00 0.00 45 1008.6
20260902040524 33 155 0.0 0.0 0.00 0.00 0.00 44 1008.5
20260902040024 33 155 0.0 0.0 0.00 0.00 0.00 43 1008.5
20260902035523 33 155 0.0 0.0 0.00 0.00 0.00 41 1008.4
20260902035023 33 161 0.0 0.0 0.00 0.00 0.00 39 1008.3
20260902034526 33 161 0.0 3.2 0.00 0.00 0.00 39 1008.2
20260902034025 33 153 0.0 3.2 0.00 0.00 0.00 38 1008.1
20260902033525 33 197 0.0 3.2 0.00 0.00 0.00 37 1008.0
20260902033023 33 171 0.0 3.2 0.00 0.00 0.00 36 1008.0
20260902032524 33 162 0.0 3.2 0.00 0.00 0.00 36 1007.9
20260902032022 34 169 0.0 3.2 0.00 0.00 0.00 36 1007.8
20260902031522 34 228 0.0 0.0 0.00 0.00 0.00 36 1007.8
20260902031022 34 228 0.0 0.0 0.00 0.00 0.00 36 1007.8